GTI900 SKRG-SKSP

Flight info

Callsign GTI900
Flight time N/A
Altitude 38000
Route IBDAM1A NENES A323 KOTIN UN653 TOSAV TOSAV2A
Aircraft B738/M-SDE2E3FGHIRWXY/LB1

Departure

Time 2026-05-09 17:43
Airport Jose Maria Córdova International Airport (SKRG)

Arrival

Time N/A
Airport Gustavo Rojas Pinilla International Airport (SKSP)
Time Latitude Longitude Altitude Speed Heading
2026-05-09 17:27 6.17592 -75.42682 6991 ft 0 kts 283°
2026-05-09 17:33 6.17590 -75.42676 6988 ft 2 kts 283°
2026-05-09 17:33 6.17586 -75.42657 6988 ft 3 kts 283°
2026-05-09 17:33 6.17582 -75.42637 6992 ft 3 kts 274°
2026-05-09 17:33 6.17582 -75.42617 6995 ft 3 kts 256°
2026-05-09 17:34 6.17589 -75.42600 6987 ft 3 kts 225°
2026-05-09 17:35 6.17629 -75.42592 6990 ft 0 kts 179°
2026-05-09 17:36 6.17623 -75.42592 6989 ft 4 kts 179°
2026-05-09 17:36 6.17552 -75.42594 6995 ft 15 kts 182°
2026-05-09 17:37 6.17445 -75.42592 6992 ft 15 kts 182°
2026-05-09 17:37 6.17346 -75.42620 6989 ft 15 kts 186°
2026-05-09 17:37 6.17245 -75.42622 6984 ft 15 kts 181°
2026-05-09 17:37 6.17133 -75.42620 6988 ft 17 kts 174°
2026-05-09 17:38 6.17025 -75.42582 6980 ft 16 kts 150°
2026-05-09 17:38 6.16927 -75.42526 6983 ft 16 kts 150°
2026-05-09 17:38 6.16829 -75.42487 6982 ft 15 kts 178°
2026-05-09 17:39 6.16535 -75.42485 6976 ft 27 kts 179°
2026-05-09 17:39 6.16332 -75.42484 6972 ft 31 kts 180°
2026-05-09 17:39 6.16108 -75.42481 6967 ft 33 kts 180°
2026-05-09 17:39 6.15881 -75.42479 6965 ft 32 kts 179°
2026-05-09 17:40 6.15665 -75.42479 6961 ft 30 kts 180°
2026-05-09 17:40 6.15464 -75.42476 6958 ft 28 kts 179°
2026-05-09 17:40 6.15268 -75.42473 6953 ft 30 kts 179°
2026-05-09 17:40 6.15059 -75.42471 6949 ft 27 kts 179°
2026-05-09 17:41 6.14962 -75.42470 6947 ft 7 kts 179°
2026-05-09 17:41 6.14897 -75.42451 6947 ft 12 kts 125°
2026-05-09 17:41 6.14892 -75.42368 6946 ft 12 kts 78°
2026-05-09 17:41 6.14947 -75.42310 6947 ft 12 kts 26°
2026-05-09 17:42 6.15083 -75.42297 6951 ft 41 kts 359°
2026-05-09 17:42 6.15601 -75.42302 6961 ft 107 kts 359°
2026-05-09 17:42 6.16549 -75.42311 6974 ft 163 kts 359°
2026-05-09 17:42 6.17807 -75.42329 7278 ft 189 kts 359°
2026-05-09 17:43 6.19148 -75.42335 8025 ft 197 kts
2026-05-09 17:43 6.20529 -75.42259 8683 ft 203 kts
2026-05-09 17:43 6.21997 -75.42146 9092 ft 219 kts 15°
2026-05-09 17:43 6.23330 -75.41437 9537 ft 220 kts 52°
2026-05-09 17:44 6.24003 -75.40109 10061 ft 215 kts 88°
2026-05-09 17:44 6.23762 -75.38700 10638 ft 202 kts 121°
2026-05-09 17:44 6.22888 -75.37588 11189 ft 204 kts 136°
2026-05-09 17:44 6.21875 -75.36581 11668 ft 210 kts 137°
2026-05-09 17:45 6.20828 -75.35550 12246 ft 212 kts 139°
2026-05-09 17:45 6.19574 -75.34827 12900 ft 209 kts 167°
2026-05-09 17:45 6.18114 -75.34832 13482 ft 216 kts 193°
2026-05-09 17:45 6.16727 -75.35567 13706 ft 242 kts 222°
2026-05-09 17:46 6.15802 -75.37076 13903 ft 269 kts 243°
2026-05-09 17:46 6.15087 -75.38922 14051 ft 297 kts 247°
2026-05-09 17:46 6.14332 -75.40948 14229 ft 322 kts 248°
2026-05-09 17:46 6.13540 -75.43147 14400 ft 346 kts 248°
2026-05-09 17:47 6.12730 -75.45480 14784 ft 359 kts 249°
2026-05-09 17:47 6.11903 -75.47860 15412 ft 363 kts 249°
2026-05-09 17:47 6.11072 -75.50264 16067 ft 366 kts 252°
2026-05-09 17:47 6.10721 -75.52798 16691 ft 371 kts 271°
2026-05-09 17:48 6.10853 -75.55391 17225 ft 373 kts 272°
2026-05-09 17:48 6.11001 -75.57995 17892 ft 375 kts 274°
2026-05-09 17:48 6.11586 -75.60552 18495 ft 380 kts 294°
2026-05-09 17:48 6.12911 -75.62855 19064 ft 382 kts 303°
2026-05-09 17:49 6.14395 -75.65085 19612 ft 386 kts 303°
2026-05-09 17:49 6.15907 -75.67323 20138 ft 388 kts 303°
2026-05-09 17:49 6.17424 -75.69584 20649 ft 392 kts 302°
2026-05-09 17:49 6.18939 -75.71871 21167 ft 395 kts 302°
2026-05-09 17:50 6.20456 -75.74181 21673 ft 397 kts 302°
2026-05-09 17:50 6.23486 -75.78820 22625 ft 403 kts 302°
2026-05-09 17:50 6.25038 -75.81194 22971 ft 410 kts 302°
2026-05-09 17:51 6.26632 -75.83584 23419 ft 413 kts 303°
2026-05-09 17:51 6.28264 -75.85968 23832 ft 415 kts 303°
2026-05-09 17:51 6.29918 -75.88364 24218 ft 418 kts 304°
2026-05-09 17:51 6.31576 -75.90766 24606 ft 420 kts 304°
2026-05-09 17:52 6.33242 -75.93186 24987 ft 422 kts 303°
2026-05-09 17:52 6.34915 -75.95621 25381 ft 424 kts 303°
2026-05-09 17:52 6.36595 -75.98072 25761 ft 427 kts 304°
2026-05-09 17:52 6.38283 -76.00538 26136 ft 429 kts 303°
2026-05-09 17:53 6.39980 -76.03018 26521 ft 432 kts 304°
2026-05-09 17:53 6.41685 -76.05510 26912 ft 434 kts 304°
2026-05-09 17:53 6.43400 -76.08017 27277 ft 436 kts 304°
2026-05-09 17:53 6.45124 -76.10539 27636 ft 439 kts 304°
2026-05-09 17:54 6.46859 -76.13075 28001 ft 441 kts 304°
2026-05-09 17:54 6.48602 -76.15625 28333 ft 444 kts 304°
2026-05-09 17:54 6.50360 -76.18196 28633 ft 448 kts 304°
2026-05-09 17:54 6.52130 -76.20784 28962 ft 450 kts 305°
2026-05-09 17:55 6.54029 -76.23293 29303 ft 452 kts 313°
2026-05-09 17:55 6.56250 -76.25537 29637 ft 454 kts 316°
2026-05-09 17:55 6.58542 -76.27726 29971 ft 456 kts 317°
2026-05-09 17:55 6.60862 -76.29916 30235 ft 458 kts 317°
2026-05-09 17:56 6.63190 -76.32116 30487 ft 460 kts 317°
2026-05-09 17:56 6.65519 -76.34332 30758 ft 462 kts 318°
2026-05-09 17:56 6.67858 -76.36573 30935 ft 466 kts 317°
2026-05-09 17:57 6.72526 -76.41076 31661 ft 464 kts 317°
2026-05-09 17:57 6.74856 -76.43330 32015 ft 464 kts 317°
2026-05-09 17:57 6.77147 -76.45549 32414 ft 463 kts 317°
2026-05-09 17:57 6.79469 -76.47799 32746 ft 463 kts 317°
2026-05-09 17:58 6.81781 -76.50039 33207 ft 460 kts 317°
2026-05-09 17:58 6.84081 -76.52267 33621 ft 458 kts 317°
2026-05-09 17:58 6.86377 -76.54490 33953 ft 458 kts 317°
2026-05-09 17:58 6.88671 -76.56712 34254 ft 458 kts 317°
2026-05-09 17:59 6.90961 -76.58930 34622 ft 456 kts 317°
2026-05-09 17:59 6.93237 -76.61135 35018 ft 453 kts 317°
2026-05-09 17:59 6.95499 -76.63327 35403 ft 450 kts 317°
2026-05-09 17:59 6.97749 -76.65507 35733 ft 448 kts 316°
2026-05-09 18:00 6.99988 -76.67677 36120 ft 445 kts 316°
2026-05-09 18:00 7.02210 -76.69830 36530 ft 442 kts 316°
2026-05-09 18:00 7.04419 -76.71971 36867 ft 440 kts 316°
2026-05-09 18:00 7.06619 -76.74104 37191 ft 438 kts 316°
2026-05-09 18:01 7.08809 -76.76227 37600 ft 435 kts 316°
2026-05-09 18:01 7.10986 -76.78338 37775 ft 436 kts 316°
2026-05-09 18:01 7.13167 -76.80454 37785 ft 436 kts 316°
2026-05-09 18:02 7.17539 -76.84696 37796 ft 436 kts 316°
2026-05-09 18:02 7.21906 -76.88933 37795 ft 436 kts 316°
2026-05-09 18:03 7.26271 -76.93170 37805 ft 436 kts 316°
2026-05-09 18:03 7.30634 -76.97407 37803 ft 436 kts 316°
2026-05-09 18:04 7.34262 -77.00930 37791 ft 436 kts 316°
2026-05-09 18:04 7.38628 -77.05172 37790 ft 436 kts 316°
2026-05-09 18:05 7.42988 -77.09409 37805 ft 435 kts 316°
2026-05-09 18:05 7.47349 -77.13648 37805 ft 435 kts 316°
2026-05-09 18:06 7.51706 -77.17885 37791 ft 435 kts 316°
2026-05-09 18:06 7.56057 -77.22117 37795 ft 435 kts 316°
2026-05-09 18:07 7.60404 -77.26347 37812 ft 434 kts 316°
2026-05-09 18:07 7.64750 -77.30577 37813 ft 434 kts 316°
2026-05-09 18:08 7.69091 -77.34804 37813 ft 433 kts 316°
2026-05-09 18:08 7.73401 -77.39004 37813 ft 434 kts 315°
2026-05-09 18:09 7.77530 -77.43432 37814 ft 434 kts 312°
2026-05-09 18:09 7.81545 -77.47970 37820 ft 433 kts 311°
2026-05-09 18:10 7.85564 -77.52496 37821 ft 433 kts 312°
2026-05-09 18:10 7.89601 -77.57007 37816 ft 433 kts 312°
2026-05-09 18:11 7.93646 -77.61511 37815 ft 433 kts 312°
2026-05-09 18:11 7.97694 -77.66018 37814 ft 434 kts 312°
2026-05-09 18:12 8.01748 -77.70534 37820 ft 434 kts 312°
2026-05-09 18:12 8.05799 -77.75049 37807 ft 434 kts 312°
2026-05-09 18:13 8.09855 -77.79571 37813 ft 435 kts 312°
2026-05-09 18:13 8.13913 -77.84096 37824 ft 435 kts 312°
2026-05-09 18:14 8.17952 -77.88602 37807 ft 435 kts 312°
2026-05-09 18:14 8.22011 -77.93132 37810 ft 435 kts 312°
2026-05-09 18:15 8.26070 -77.97663 37800 ft 435 kts 312°
2026-05-09 18:15 8.30124 -78.02190 37802 ft 434 kts 312°
2026-05-09 18:16 8.34175 -78.06716 37812 ft 434 kts 312°
2026-05-09 18:16 8.38223 -78.11240 37800 ft 434 kts 312°
2026-05-09 18:17 8.42387 -78.15645 37800 ft 433 kts 318°
2026-05-09 18:17 8.47030 -78.19524 37810 ft 433 kts 321°
2026-05-09 18:18 8.51734 -78.23328 37809 ft 433 kts 321°
2026-05-09 18:18 8.56405 -78.27178 37798 ft 434 kts 320°
2026-05-09 18:19 8.61057 -78.31065 37809 ft 435 kts 320°
2026-05-09 18:19 8.68027 -78.36921 37819 ft 437 kts 320°
2026-05-09 18:20 8.72714 -78.40862 37810 ft 439 kts 320°
2026-05-09 18:20 8.77420 -78.44819 37811 ft 441 kts 320°
2026-05-09 18:21 8.82138 -78.48786 37826 ft 442 kts 320°
2026-05-09 18:21 8.86868 -78.52764 37813 ft 442 kts 320°
2026-05-09 18:22 8.91604 -78.56735 37824 ft 442 kts 319°
2026-05-09 18:22 8.96288 -78.60689 37809 ft 433 kts 318°
2026-05-09 18:23 9.00878 -78.64561 37817 ft 429 kts 319°
2026-05-09 18:23 9.05467 -78.68427 37829 ft 430 kts 319°
2026-05-09 18:24 9.10074 -78.72301 37835 ft 431 kts 319°
2026-05-09 18:25 9.17009 -78.78137 37827 ft 434 kts 319°
2026-05-09 18:25 9.21654 -78.82057 37836 ft 436 kts 319°
2026-05-09 18:26 9.26315 -78.85997 37835 ft 438 kts 319°
2026-05-09 18:26 9.30965 -78.89925 37841 ft 439 kts 319°
2026-05-09 18:27 9.35627 -78.93862 37834 ft 433 kts 319°
2026-05-09 18:27 9.40204 -78.97726 37831 ft 425 kts 319°
2026-05-09 18:28 9.44756 -79.01574 37848 ft 429 kts 319°
2026-05-09 18:28 9.49375 -79.05480 37850 ft 435 kts 319°
2026-05-09 18:29 9.54037 -79.09424 37845 ft 438 kts 319°
2026-05-09 18:29 9.58727 -79.13392 37853 ft 438 kts 319°
2026-05-09 18:30 9.63364 -79.17315 37836 ft 430 kts 319°
2026-05-09 18:30 9.67940 -79.21189 37853 ft 427 kts 320°
2026-05-09 18:31 9.72496 -79.25048 37849 ft 426 kts 320°
2026-05-09 18:31 9.77036 -79.28895 37841 ft 425 kts 319°
2026-05-09 18:32 9.81569 -79.32737 37838 ft 425 kts 319°
2026-05-09 18:32 9.86103 -79.36583 37844 ft 425 kts 319°
2026-05-09 18:33 9.90613 -79.40408 37842 ft 426 kts 320°
2026-05-09 18:33 9.95164 -79.44270 37844 ft 428 kts 319°